Location: St. Louis
(38.6270°N, 90.1994°W)
Time: 01:52:02
(UTC-05:00)

ISS - Pass Details

Date: 17 February 2014
Orbit: 402 x 404 km, 51.6° (Epoch: 26 May)

Event Time Altitude Azimuth Distance (km) Brightness Sun altitude
Rises 19:19:06 0° 317° (NW) 2,397 1.2 -19.8°
Reaches altitude 10° 19:21:59 10° 343° (NNW) 1,531 -0.2 -20.4°
Enters shadow 19:23:08 14° 2° (N) 1,333 -0.7 -20.6°
